Location: Bailleul
(50.3375°N, 2.8513°E)
Time: 18:56:18
(UTC+00:00)

Terra - Pass Details

Date: 02 August 2021
Orbit: 701 x 703 km, 98.2° (Epoch: 17 September)

Event Time Altitude Azimuth Distance (km) Brightness Sun altitude
Exits shadow 20:23:08 - 117° (ESE) 2,254 3.8 -7.8°
Reaches altitude 10° 20:23:23 10° 115° (ESE) 2,172 3.7 -7.8°
Maximum altitude 20:27:14 25° 61° (ENE) 1,407 3.2 -8.3°
Drops below altitude 10° 20:31:06 10° 7° (N) 2,185 4.9 -8.7°
Sets 20:33:41 0° 355° (N) 3,108 6.0 -9.0°
